Location: Arrakis Observatory
(44.1122°N, 95.7153°W)
Time: 21:04:27
(UTC-05:00)

Iridium 35 - Visible Passes

Search period start: 27 April 2015 00:00
Search period end: 07 May 2015 00:00
Orbit: 776 x 779 km, 86.4° (Epoch: 27 April)

Date Brightness Start Highest point End Pass type
(mag) Time Alt. Az. Time Alt. Az. Time Alt. Az.
28 Apr 6.9 05:20:23 10° SSE 05:24:59 33° E 05:29:40 10° NNE visible
29 Apr 7.7 04:48:09 10° ESE 04:51:41 19° E 04:55:23 10° NE visible
30 Apr 8.2 04:17:42 10° E 04:18:29 10° ENE 04:19:36 10° ENE visible
01 May 6.2 05:20:04 10° SSE 05:25:00 47° E 05:30:02 10° NNE visible
02 May 7.2 04:47:24 10° SE 04:51:39 27° E 04:56:02 10° NNE visible
03 May 7.8 04:15:34 10° ESE 04:18:24 15° ENE 04:21:27 10° NE visible
04 May 5.4 05:19:55 10° S 05:25:04 68° E 05:30:17 10° N visible
05 May 6.5 04:46:56 10° SSE 04:51:39 38° E 04:56:28 10° NNE visible
06 May 7.4 04:14:32 10° SE 04:18:20 22° E 04:22:18 10° NNE visible
